Location: Ailingen
(47.6833°N, 9.5000°E)
Time: 12:22:14
(UTC+00:00)

Cosmos 2344 - Pass Details

Date: 18 November 2025
Orbit: 1197 x 3045 km, 63.3° (Epoch: 06 December)

Event Time Altitude Azimuth Distance (km) Brightness Sun altitude
Rises 16:08:24 0° 311° (NW) 4,118 6.6 -4.8°
Reaches altitude 10° 16:11:19 10° 321° (NW) 3,200 5.9 -5.3°
Maximum altitude 16:18:05 34° 26° (NNE) 2,105 4.4 -6.3°
Drops below altitude 10° 16:26:20 10° 89° (E) 3,925 5.5 -7.6°
Enters shadow 16:28:28 - 95° (E) 4,596 5.9 -8.0°
